Weather History for KCDC - June, 2013

Change the Weather History Date:

Saturday, June 15, 2013

  Actual Average Record
Temperature  
Mean Temperature 65 °F 65 °F  
Max Temperature 87 °F 83 °F 97 °F (1985)
Min Temperature 42 °F 48 °F 33 °F (1981)
Degree Days  
Heating Degree Days 0 2  
Month to date heating degree days 8 59  
Since 1 June heating degree days 8 59  
Since 1 July heating degree days 6131 6238  
Cooling Degree Days 0 3  
Month to date cooling degree days 65 29  
Year to date cooling degree days 67 37  
Since 1 June cooling degree days 65 29  
Growing Degree Days 14 (Base 50)    
Moisture  
Dew Point 21 °F    
Average Humidity 22    
Maximum Humidity 36    
Minimum Humidity 8    
Precipitation  
Precipitation 0.00 in 0.02 in 0.07 in (1973)
Month to date precipitation 0.00 0.33  
Year to date precipitation 4.06 5.37  
Sea Level Pressure  
Sea Level Pressure 29.87 in    
Wind  
Wind Speed 8 mph (SSW)    
Max Wind Speed 31 mph    
Max Gust Speed 41 mph    
Visibility 10 miles    
Events      
T = Trace of Precipitation, MM = Missing Value Source: NWS Daily Summary

Daily Weather History Graph

Daily Weather History Graph

Search for Another Location

Airport or City:

Trip Planner

Search our weather history database for the weather conditions in past years. The results will help you decide how hot, cold, wet, or windy it might be!

Date:

Astronomy

Jun. 15, 2013 Rise Set
Actual Time 6:10 AM MDT 8:55 PM MDT
Civil Twilight 5:38 AM MDT 9:27 PM MDT
Nautical Twilight 4:59 AM MDT 10:06 PM MDT
Astronomical Twilight 4:15 AM MDT 10:50 PM MDT
Moon 12:42 PM MDT (6/15) 12:39 AM MDT (6/15)
Length of Visible Light 15h 48m
Length of Day
14h 45m
Waxing Crescent, 40% of the Moon is Illuminated
Jun 15
Waxing Crescent
Jun 16
First Quarter
Jun 23
Full
Jun 29
Last Quarter
Jul 8
New

Hourly Weather History & Observations

Time (MDT) Temp. Dew Point Humidity Pressure Visibility Wind Dir Wind Speed Gust Speed Precip Events Conditions
12:53 AM 57.0 °F 16.0 °F 20% 29.86 in 10.0 mi Calm Calm - N/A   Clear
1:53 AM 54.0 °F 12.9 °F 20% 29.85 in 10.0 mi SSW 3.5 mph - N/A   Clear
2:53 AM 55.0 °F 17.1 °F 23% 29.85 in 10.0 mi Calm Calm - N/A   Clear
3:53 AM 48.9 °F 18.0 °F 29% 29.86 in 10.0 mi South 3.5 mph - N/A   Clear
4:53 AM 48.9 °F 18.0 °F 29% 29.86 in 10.0 mi Calm Calm - N/A   Clear
5:53 AM 43.0 °F 18.0 °F 37% 29.88 in 10.0 mi Calm Calm - N/A   Clear
6:53 AM 50.0 °F 21.9 °F 33% 29.88 in 10.0 mi South 3.5 mph - N/A   Clear
7:53 AM 55.0 °F 27.0 °F 34% 29.89 in 10.0 mi Calm Calm - N/A   Clear
8:53 AM 61.0 °F 23.0 °F 23% 29.91 in 10.0 mi WNW 4.6 mph - N/A   Clear
9:53 AM 64.9 °F 21.9 °F 19% 29.91 in 10.0 mi Calm Calm - N/A   Clear
10:53 AM 71.1 °F 23.0 °F 16% 29.89 in 10.0 mi Calm Calm - N/A   Unknown
11:53 AM 80.1 °F 24.1 °F 13% 29.87 in 10.0 mi Variable 3.5 mph - N/A   Clear
12:16 PM 82.4 °F 19.4 °F 10% 30.08 in 10.0 mi South 25.3 mph 39.1 mph N/A   Clear
12:53 PM 84.0 °F 19.9 °F 9% 29.86 in 10.0 mi SSW 26.5 mph 40.3 mph N/A   Clear
1:53 PM 84.9 °F 24.1 °F 11% 29.86 in 10.0 mi South 28.8 mph 34.5 mph N/A   Clear
2:53 PM 86.0 °F 21.9 °F 10% 29.83 in 10.0 mi SSW 23.0 mph 38.0 mph N/A   Clear
3:53 PM 86.0 °F 21.0 °F 9% 29.83 in 10.0 mi SSW 18.4 mph 35.7 mph N/A   Clear
4:53 PM 86.0 °F 19.0 °F 8% 29.82 in 10.0 mi SSW 23.0 mph 32.2 mph N/A   Clear
5:53 PM 84.9 °F 25.0 °F 11% 29.84 in 10.0 mi SW 16.1 mph 28.8 mph N/A   Clear
6:53 PM 82.0 °F 24.1 °F 12% 29.83 in 10.0 mi SW 15.0 mph 28.8 mph N/A   Clear
7:53 PM 80.1 °F 21.9 °F 12% 29.82 in 10.0 mi SW 15.0 mph 28.8 mph N/A   Clear
8:53 PM 75.0 °F 21.9 °F 14% 29.83 in 10.0 mi SW 9.2 mph - N/A   Clear
9:53 PM 71.1 °F 19.0 °F 14% 29.85 in 10.0 mi South 8.1 mph - N/A   Clear
10:53 PM 63.0 °F 24.1 °F 23% 29.88 in 10.0 mi Calm Calm - N/A   Clear
11:53 PM 64.0 °F 24.1 °F 22% 29.86 in 10.0 mi Calm Calm - N/A   Clear